Location: Civís
(42.4648°N, 1.4232°E)
Time: 21:49:26
(UTC+00:00)

Cosmos 1441 Rocket - Visible Passes

Search period start: 18 November 2025 00:00
Search period end: 28 November 2025 00:00
Orbit: 426 x 451 km, 81.1° (Epoch: 18 November)

Date Brightness Start Highest point End Pass type
(mag) Time Alt. Az. Time Alt. Az. Time Alt. Az.
18 Nov 6.3 04:48:46 10° ESE 04:50:22 13° E 04:51:59 10° ENE visible
18 Nov 6.3 17:40:43 10° WNW 17:42:21 13° W 17:43:59 10° WSW visible
19 Nov 2.7 05:41:47 10° SSW 05:45:05 82° W 05:48:26 10° N visible
19 Nov 5.0 17:00:22 10° NNW 17:03:24 31° W 17:06:25 10° SSW visible
20 Nov 4.6 05:02:56 10° SSE 05:05:59 34° E 05:09:02 10° NNE visible
21 Nov 6.1 04:25:08 10° ESE 04:26:58 14° E 04:28:48 10° NE visible
21 Nov 3.7 05:58:05 10° SW 06:00:57 27° WNW 06:03:50 10° NNW visible
21 Nov 6.3 17:17:31 10° WNW 17:18:54 12° W 17:20:18 10° WSW visible
22 Nov 2.6 05:18:19 10° SSW 05:21:37 74° W 05:24:57 10° N visible
23 Nov 4.3 04:39:19 10° SSE 04:42:24 37° E 04:45:31 10° NNE visible
23 Nov 4.8 06:15:59 10° W 06:16:52 11° WNW 06:17:46 10° NW visible
24 Nov 5.2 05:40:02 11° NNW 05:40:02 11° NNW 05:40:08 10° NNW visible
